| time (UTC) | temp C | wind direction | speed KPH | gust KPH | rain 1hr cm | rain 24hr cm | rain mn cm | humidity % | barometer mb |
| 20260506024424 | 20 | 187 | 0.0 | 0.0 | 0.00 | 0.00 | 0.00 | 47 | 1010.0 |
| 20260506023924 | 20 | 187 | 0.0 | 0.0 | 0.00 | 0.00 | 0.00 | 47 | 1010.0 |
| 20260506023424 | 20 | 187 | 0.0 | 0.0 | 0.00 | 0.00 | 0.00 | 47 | 1010.0 |
| 20260506022923 | 20 | 187 | 0.0 | 0.0 | 0.00 | 0.00 | 0.00 | 46 | 1010.0 |
| 20260506022423 | 20 | 187 | 0.0 | 0.0 | 0.00 | 0.00 | 0.00 | 46 | 1010.0 |
| 20260506021922 | 20 | 187 | 0.0 | 0.0 | 0.00 | 0.00 | 0.00 | 47 | 1010.0 |
| 20260506021422 | 20 | 187 | 0.0 | 0.0 | 0.00 | 0.00 | 0.00 | 46 | 1010.0 |
| 20260506020921 | 20 | 187 | 0.0 | 0.0 | 0.00 | 0.00 | 0.00 | 45 | 1010.0 |
| 20260506020421 | 20 | 187 | 0.0 | 0.0 | 0.00 | 0.00 | 0.00 | 45 | 1010.0 |
| 20260506015921 | 20 | 187 | 0.0 | 0.0 | 0.00 | 0.00 | 0.00 | 44 | 1010.0 |
| 20260506015420 | 21 | 187 | 0.0 | 0.0 | 0.00 | 0.00 | 0.00 | 44 | 1010.0 |
| 20260506014920 | 21 | 187 | 0.0 | 0.0 | 0.00 | 0.00 | 0.00 | 44 | 1010.0 |
| 20260506014419 | 21 | 187 | 0.0 | 0.0 | 0.00 | 0.00 | 0.00 | 44 | 1010.0 |
| 20260506013919 | 21 | 187 | 0.0 | 0.0 | 0.00 | 0.00 | 0.00 | 43 | 1010.0 |
| 20260506013419 | 21 | 187 | 0.0 | 0.0 | 0.00 | 0.00 | 0.00 | 43 | 1010.0 |
| 20260506012918 | 21 | 187 | 0.0 | 0.0 | 0.00 | 0.00 | 0.00 | 43 | 1010.0 |
| 20260506012418 | 21 | 187 | 0.0 | 0.0 | 0.00 | 0.00 | 0.00 | 42 | 1010.0 |
| 20260506011917 | 21 | 187 | 0.0 | 0.0 | 0.00 | 0.00 | 0.00 | 42 | 1010.0 |
| 20260506011417 | 21 | 187 | 0.0 | 0.0 | 0.00 | 0.00 | 0.00 | 41 | 1010.0 |
| 20260506010917 | 21 | 187 | 0.0 | 0.0 | 0.00 | 0.00 | 0.00 | 41 | 1010.0 |
| 20260506010416 | 21 | 187 | 0.0 | 0.0 | 0.00 | 0.00 | 0.00 | 41 | 1010.0 |
| 20260506005916 | 22 | 187 | 0.0 | 0.0 | 0.00 | 0.00 | 0.00 | 40 | 1010.0 |
| 20260506005415 | 22 | 187 | 0.0 | 0.0 | 0.00 | 0.00 | 0.00 | 39 | 1010.0 |
| 20260506004915 | 22 | 187 | 0.0 | 0.0 | 0.00 | 0.00 | 0.00 | 40 | 1010.0 |
| 20260506004415 | 22 | 187 | 0.0 | 0.0 | 0.00 | 0.00 | 0.00 | 37 | 1010.0 |
| 20260506003914 | 22 | 187 | 0.0 | 4.8 | 0.00 | 0.00 | 0.00 | 36 | 1010.0 |
| 20260506003414 | 22 | 187 | 0.0 | 6.4 | 0.00 | 0.00 | 0.00 | 35 | 1010.0 |
| 20260506002913 | 22 | 187 | 0.0 | 6.4 | 0.00 | 0.00 | 0.00 | 35 | 1009.0 |
| 20260506002522 | 22 | 187 | 0.0 | 4.8 | 0.00 | 0.00 | 0.00 | 35 | 1009.0 |
| 20260506002413 | 22 | 187 | 0.0 | 4.8 | 0.00 | 0.00 | 0.00 | 35 | 1009.0 |
| 20260506001913 | 22 | 187 | 0.0 | 6.4 | 0.00 | 0.00 | 0.00 | 35 | 1009.0 |
| 20260506001412 | 22 | 187 | 0.0 | 4.8 | 0.00 | 0.00 | 0.00 | 35 | 1010.0 |
| 20260506000912 | 23 | 186 | 0.0 | 6.4 | 0.00 | 0.00 | 0.00 | 34 | 1010.0 |
| 20260506000412 | 23 | 186 | 0.0 | 6.4 | 0.00 | 0.00 | 0.00 | 34 | 1010.0 |
| 20260505235911 | 23 | 185 | 0.0 | 8.0 | 0.00 | 0.00 | 0.00 | 34 | 1010.0 |
| 20260505235411 | 23 | 184 | 6.4 | 9.7 | 0.00 | 0.00 | 0.00 | 33 | 1010.0 |
| 20260505234910 | 23 | 185 | 6.4 | 11.3 | 0.00 | 0.00 | 0.00 | 33 | 1010.0 |
| 20260505234410 | 23 | 189 | 0.0 | 8.0 | 0.00 | 0.00 | 0.00 | 32 | 1010.0 |
| 20260505233909 | 23 | 187 | 0.0 | 4.8 | 0.00 | 0.00 | 0.00 | 32 | 1010.0 |
| 20260505233409 | 23 | 188 | 0.0 | 6.4 | 0.00 | 0.00 | 0.00 | 32 | 1010.0 |
| 20260505232909 | 23 | 187 | 4.8 | 9.7 | 0.00 | 0.00 | 0.00 | 32 | 1010.0 |
| 20260505232408 | 23 | 186 | 4.8 | 11.3 | 0.00 | 0.00 | 0.00 | 32 | 1010.0 |
| 20260505231908 | 23 | 186 | 0.0 | 8.0 | 0.00 | 0.00 | 0.00 | 32 | 1010.0 |
| 20260505231407 | 23 | 186 | 0.0 | 6.4 | 0.00 | 0.00 | 0.00 | 31 | 1010.0 |
| 20260505230907 | 23 | 181 | 0.0 | 6.4 | 0.00 | 0.00 | 0.00 | 31 | 1010.0 |
| 20260505230407 | 24 | 181 | 0.0 | 8.0 | 0.00 | 0.00 | 0.00 | 31 | 1010.0 |
| 20260505225906 | 24 | 198 | 6.4 | 11.3 | 0.00 | 0.00 | 0.00 | 31 | 1010.0 |
| 20260505225406 | 24 | 180 | 4.8 | 9.7 | 0.00 | 0.00 | 0.00 | 31 | 1010.0 |
| 20260505224905 | 24 | 193 | 0.0 | 9.7 | 0.00 | 0.00 | 0.00 | 30 | 1010.0 |
| 20260505224405 | 25 | 187 | 4.8 | 8.0 | 0.00 | 0.00 | 0.00 | 30 | 1010.0 |
| 20260505223905 | 25 | 187 | 6.4 | 8.0 | 0.00 | 0.00 | 0.00 | 30 | 1010.0 |
| 20260505223404 | 25 | 187 | 6.4 | 8.0 | 0.00 | 0.00 | 0.00 | 30 | 1010.0 |
| 20260505222904 | 25 | 186 | 6.4 | 8.0 | 0.00 | 0.00 | 0.00 | 30 | 1010.0 |
| 20260505222403 | 25 | 184 | 4.8 | 11.3 | 0.00 | 0.00 | 0.00 | 30 | 1010.0 |
| 20260505221903 | 25 | 184 | 0.0 | 9.7 | 0.00 | 0.00 | 0.00 | 30 | 1010.0 |
| 20260505221403 | 25 | 184 | 6.4 | 9.7 | 0.00 | 0.00 | 0.00 | 30 | 1009.0 |
| 20260505220902 | 25 | 175 | 6.4 | 9.7 | 0.00 | 0.00 | 0.00 | 30 | 1009.0 |
| 20260505220353 | 25 | 166 | 4.8 | 8.0 | 0.00 | 0.00 | 0.00 | 29 | 1009.0 |
| 20260505215852 | 24 | 171 | 0.0 | 14.5 | 0.00 | 0.00 | 0.00 | 28 | 1009.0 |
| 20260505215352 | 24 | 143 | 4.8 | 11.3 | 0.00 | 0.00 | 0.00 | 27 | 1009.0 |
| 20260505214851 | 24 | 205 | 6.4 | 9.7 | 0.00 | 0.00 | 0.00 | 27 | 1009.0 |
| 20260505214351 | 25 | 190 | 4.8 | 9.7 | 0.00 | 0.00 | 0.00 | 26 | 1010.0 |
| 20260505213850 | 25 | 190 | 8.0 | 8.0 | 0.00 | 0.00 | 0.00 | 26 | 1010.0 |
| 20260505213341 | 25 | 188 | 6.4 | 9.7 | 0.00 | 0.00 | 0.00 | 26 | 1010.0 |
| 20260505212840 | 25 | 198 | 6.4 | 8.0 | 0.00 | 0.00 | 0.00 | 25 | 1010.0 |
| 20260505212340 | 25 | 171 | 4.8 | 8.0 | 0.00 | 0.00 | 0.00 | 25 | 1010.0 |
| 20260505211839 | 25 | 168 | 4.8 | 12.9 | 0.00 | 0.00 | 0.00 | 25 | 1010.0 |
| 20260505211325 | 25 | 201 | 4.8 | 9.7 | 0.00 | 0.00 | 0.00 | 24 | 1009.0 |
| 20260505210824 | 25 | 178 | 6.4 | 14.5 | 0.00 | 0.00 | 0.00 | 24 | 1009.0 |
| 20260505210319 | 25 | 198 | 4.8 | 19.3 | 0.00 | 0.00 | 0.00 | 24 | 1010.0 |
| 20260505205819 | 25 | 166 | 9.7 | 12.9 | 0.00 | 0.00 | 0.00 | 23 | 1010.0 |
| 20260505205318 | 25 | 214 | 4.8 | 11.3 | 0.00 | 0.00 | 0.00 | 23 | 1010.0 |
| 20260505204818 | 25 | 167 | 4.8 | 12.9 | 0.00 | 0.00 | 0.00 | 24 | 1010.0 |
| 20260505204304 | 25 | 189 | 6.4 | 12.9 | 0.00 | 0.00 | 0.00 | 23 | 1010.0 |
| 20260505203848 | 25 | 146 | 6.4 | 16.1 | 0.00 | 0.00 | 0.00 | 23 | 1010.0 |
| 20260505203803 | 25 | 146 | 6.4 | 16.1 | 0.00 | 0.00 | 0.00 | 23 | 1010.0 |
| 20260505203303 | 25 | 195 | 9.7 | 14.5 | 0.00 | 0.00 | 0.00 | 23 | 1010.0 |
| 20260505202803 | 26 | 207 | 6.4 | 14.5 | 0.00 | 0.00 | 0.00 | 24 | 1010.0 |
| 20260505202305 | 26 | 174 | 6.4 | 8.0 | 0.00 | 0.00 | 0.00 | 24 | 1010.0 |
| 20260505201840 | 25 | 188 | 8.0 | 19.3 | 0.00 | 0.00 | 0.00 | 24 | 1010.0 |
| 20260505201802 | 25 | 188 | 8.0 | 19.3 | 0.00 | 0.00 | 0.00 | 24 | 1010.0 |
| 20260505201301 | 25 | 150 | 4.8 | 14.5 | 0.00 | 0.00 | 0.00 | 24 | 1010.0 |
| 20260505200801 | 25 | 252 | 11.3 | 14.5 | 0.00 | 0.00 | 0.00 | 23 | 1010.0 |
| 20260505200301 | 25 | 128 | 8.0 | 9.7 | 0.00 | 0.00 | 0.00 | 24 | 1011.0 |
| 20260505195800 | 25 | 160 | 0.0 | 9.7 | 0.00 | 0.00 | 0.00 | 23 | 1011.0 |
| 20260505195255 | 25 | 189 | 6.4 | 14.5 | 0.00 | 0.00 | 0.00 | 24 | 1011.0 |
| 20260505194755 | 25 | 188 | 8.0 | 16.1 | 0.00 | 0.00 | 0.00 | 24 | 1011.0 |
| 20260505194254 | 25 | 147 | 9.7 | 17.7 | 0.00 | 0.00 | 0.00 | 24 | 1011.0 |
| 20260505193754 | 25 | 160 | 6.4 | 12.9 | 0.00 | 0.00 | 0.00 | 24 | 1011.0 |
| 20260505193244 | 25 | 205 | 9.7 | 14.5 | 0.00 | 0.00 | 0.00 | 24 | 1011.0 |
| 20260505192743 | 25 | 190 | 6.4 | 17.7 | 0.00 | 0.00 | 0.00 | 24 | 1011.0 |
| 20260505192243 | 25 | 180 | 6.4 | 16.1 | 0.00 | 0.00 | 0.00 | 23 | 1011.0 |
| 20260505191743 | 25 | 215 | 8.0 | 16.1 | 0.00 | 0.00 | 0.00 | 24 | 1011.0 |
| 20260505191238 | 25 | 188 | 8.0 | 16.1 | 0.00 | 0.00 | 0.00 | 24 | 1011.0 |
| 20260505190733 | 25 | 201 | 9.7 | 16.1 | 0.00 | 0.00 | 0.00 | 24 | 1011.0 |
| 20260505190232 | 25 | 176 | 0.0 | 11.3 | 0.00 | 0.00 | 0.00 | 26 | 1011.0 |
| 20260505185732 | 25 | 176 | 4.8 | 14.5 | 0.00 | 0.00 | 0.00 | 25 | 1011.0 |
| 20260505185231 | 25 | 172 | 4.8 | 14.5 | 0.00 | 0.00 | 0.00 | 25 | 1011.0 |
| 20260505184731 | 25 | 184 | 6.4 | 8.0 | 0.00 | 0.00 | 0.00 | 25 | 1011.0 |
| 20260505184134 | 25 | 210 | 0.0 | 14.5 | 0.00 | 0.00 | 0.00 | 25 | 1011.0 |
| 20260505183629 | 25 | 170 | 4.8 | 16.1 | 0.00 | 0.00 | 0.00 | 24 | 1011.0 |
| 20260505183124 | 25 | 238 | 8.0 | 11.3 | 0.00 | 0.00 | 0.00 | 24 | 1012.0 |
| 20260505182614 | 25 | 199 | 6.4 | 9.7 | 0.00 | 0.00 | 0.00 | 24 | 1012.0 |
| 20260505182114 | 25 | 251 | 4.8 | 16.1 | 0.00 | 0.00 | 0.00 | 26 | 1012.0 |
| 20260505181614 | 25 | 189 | 6.4 | 16.1 | 0.00 | 0.00 | 0.00 | 26 | 1011.0 |
| 20260505181113 | 25 | 218 | 8.0 | 12.9 | 0.00 | 0.00 | 0.00 | 26 | 1011.0 |
| 20260505180613 | 25 | 162 | 4.8 | 16.1 | 0.00 | 0.00 | 0.00 | 26 | 1011.0 |
| 20260505180112 | 25 | 187 | 9.7 | 12.9 | 0.00 | 0.00 | 0.00 | 26 | 1012.0 |
| 20260505175612 | 24 | 152 | 6.4 | 8.0 | 0.00 | 0.00 | 0.00 | 26 | 1012.0 |
| 20260505175112 | 24 | 205 | 4.8 | 12.9 | 0.00 | 0.00 | 0.00 | 25 | 1012.0 |
| 20260505174611 | 24 | 121 | 9.7 | 11.3 | 0.00 | 0.00 | 0.00 | 25 | 1012.0 |
| 20260505174111 | 24 | 196 | 6.4 | 14.5 | 0.00 | 0.00 | 0.00 | 28 | 1012.0 |
| 20260505173611 | 25 | 211 | 6.4 | 14.5 | 0.00 | 0.00 | 0.00 | 28 | 1012.0 |
| 20260505173110 | 25 | 197 | 6.4 | 16.1 | 0.00 | 0.00 | 0.00 | 30 | 1012.0 |
| 20260505172610 | 24 | 189 | 9.7 | 12.9 | 0.00 | 0.00 | 0.00 | 30 | 1012.0 |
| 20260505172110 | 24 | 223 | 8.0 | 9.7 | 0.00 | 0.00 | 0.00 | 30 | 1012.0 |
| 20260505171609 | 24 | 121 | 4.8 | 14.5 | 0.00 | 0.00 | 0.00 | 31 | 1012.0 |
| 20260505171109 | 24 | 272 | 8.0 | 16.1 | 0.00 | 0.00 | 0.00 | 32 | 1012.0 |
| 20260505170608 | 23 | 186 | 8.0 | 11.3 | 0.00 | 0.00 | 0.00 | 31 | 1012.0 |
| 20260505170108 | 23 | 179 | 8.0 | 24.1 | 0.00 | 0.00 | 0.00 | 31 | 1012.0 |
| 20260505165608 | 23 | 190 | 14.5 | 19.3 | 0.00 | 0.00 | 0.00 | 31 | 1012.0 |
| 20260505165107 | 23 | 182 | 6.4 | 17.7 | 0.00 | 0.00 | 0.00 | 32 | 1012.0 |
| 20260505164607 | 23 | 131 | 6.4 | 19.3 | 0.00 | 0.00 | 0.00 | 32 | 1012.0 |
| 20260505164101 | 23 | 247 | 9.7 | 16.1 | 0.00 | 0.00 | 0.00 | 32 | 1012.0 |
| 20260505163601 | 23 | 277 | 6.4 | 16.1 | 0.00 | 0.00 | 0.00 | 32 | 1012.0 |
| 20260505163056 | 23 | 197 | 9.7 | 17.7 | 0.00 | 0.00 | 0.00 | 34 | 1012.0 |
| 20260505162555 | 22 | 150 | 8.0 | 11.3 | 0.00 | 0.00 | 0.00 | 37 | 1012.0 |
| 20260505162055 | 22 | 172 | 6.4 | 19.3 | 0.00 | 0.00 | 0.00 | 38 | 1012.0 |
| 20260505161550 | 22 | 268 | 8.0 | 14.5 | 0.00 | 0.00 | 0.00 | 40 | 1012.0 |
| 20260505161049 | 22 | 170 | 8.0 | 17.7 | 0.00 | 0.00 | 0.00 | 39 | 1012.0 |
| 20260505160549 | 22 | 258 | 8.0 | 16.1 | 0.00 | 0.00 | 0.00 | 38 | 1012.0 |
| 20260505153004 | 20 | 184 | 6.4 | 11.3 | 0.00 | 0.00 | 0.00 | 52 | 1013.0 |
| 20260505152504 | 20 | 178 | 4.8 | 9.7 | 0.00 | 0.00 | 0.00 | 52 | 1013.0 |
| 20260505152003 | 20 | 190 | 6.4 | 9.7 | 0.00 | 0.00 | 0.00 | 55 | 1013.0 |
| 20260505151503 | 20 | 181 | 6.4 | 11.3 | 0.00 | 0.00 | 0.00 | 55 | 1013.0 |
| 20260505151002 | 20 | 189 | 4.8 | 9.7 | 0.00 | 0.00 | 0.00 | 57 | 1013.0 |
| 20260505150457 | 19 | 168 | 6.4 | 8.0 | 0.00 | 0.00 | 0.00 | 59 | 1013.0 |
| 20260505140438 | 16 | 195 | 0.0 | 6.4 | 0.00 | 0.00 | 0.00 | 68 | 1013.0 |
| 20260505124932 | 12 | 192 | 0.0 | 0.0 | 0.00 | 0.00 | 0.00 | 74 | 1012.0 |
| 20260505124432 | 12 | 192 | 0.0 | 0.0 | 0.00 | 0.00 | 0.00 | 74 | 1012.0 |
| 20260505123931 | 12 | 192 | 0.0 | 0.0 | 0.00 | 0.00 | 0.00 | 74 | 1012.0 |
| 20260505123431 | 11 | 192 | 0.0 | 0.0 | 0.00 | 0.00 | 0.00 | 73 | 1012.0 |
| 20260505122930 | 11 | 192 | 0.0 | 0.0 | 0.00 | 0.00 | 0.00 | 73 | 1012.0 |
| 20260505122430 | 11 | 192 | 0.0 | 0.0 | 0.00 | 0.00 | 0.00 | 73 | 1012.0 |
| 20260505121930 | 11 | 192 | 0.0 | 0.0 | 0.00 | 0.00 | 0.00 | 73 | 1012.0 |
| 20260505121429 | 11 | 192 | 0.0 | 0.0 | 0.00 | 0.00 | 0.00 | 73 | 1012.0 |
| 20260505120929 | 11 | 192 | 0.0 | 0.0 | 0.00 | 0.00 | 0.00 | 73 | 1012.0 |
| 20260505120428 | 11 | 192 | 0.0 | 0.0 | 0.00 | 0.00 | 0.00 | 72 | 1012.0 |
| 20260505115928 | 11 | 192 | 0.0 | 0.0 | 0.00 | 0.00 | 0.00 | 72 | 1012.0 |
| 20260505115429 | 11 | 192 | 0.0 | 0.0 | 0.00 | 0.00 | 0.00 | 72 | 1012.0 |
| 20260505114927 | 11 | 192 | 0.0 | 0.0 | 0.00 | 0.00 | 0.00 | 72 | 1012.0 |
| 20260505114426 | 11 | 192 | 0.0 | 0.0 | 0.00 | 0.00 | 0.00 | 72 | 1012.0 |
| 20260505113926 | 11 | 192 | 0.0 | 0.0 | 0.00 | 0.00 | 0.00 | 72 | 1012.0 |
| 20260505113426 | 11 | 192 | 0.0 | 0.0 | 0.00 | 0.00 | 0.00 | 71 | 1012.0 |
| 20260505112925 | 11 | 192 | 0.0 | 0.0 | 0.00 | 0.00 | 0.00 | 71 | 1011.0 |
| 20260505112425 | 10 | 192 | 0.0 | 0.0 | 0.00 | 0.00 | 0.00 | 71 | 1011.0 |
| 20260505111924 | 10 | 192 | 0.0 | 0.0 | 0.00 | 0.00 | 0.00 | 71 | 1011.0 |
| 20260505111424 | 10 | 192 | 0.0 | 0.0 | 0.00 | 0.00 | 0.00 | 71 | 1011.0 |
| 20260505111019 | 10 | 193 | 0.0 | 0.0 | 0.00 | 0.00 | 0.00 | 71 | 1011.0 |
| 20260505110923 | 10 | 193 | 0.0 | 0.0 | 0.00 | 0.00 | 0.00 | 71 | 1011.0 |
| 20260505110423 | 10 | 192 | 0.0 | 0.0 | 0.00 | 0.00 | 0.00 | 71 | 1011.0 |
| 20260505101919 | 11 | 192 | 0.0 | 0.0 | 0.00 | 0.00 | 0.00 | 68 | 1011.0 |
| 20260505101419 | 11 | 192 | 0.0 | 0.0 | 0.00 | 0.00 | 0.00 | 67 | 1011.0 |
| 20260505100918 | 11 | 192 | 0.0 | 0.0 | 0.00 | 0.00 | 0.00 | 67 | 1011.0 |
| 20260505100418 | 11 | 192 | 0.0 | 0.0 | 0.00 | 0.00 | 0.00 | 68 | 1011.0 |
| 20260505095917 | 11 | 192 | 0.0 | 0.0 | 0.00 | 0.00 | 0.00 | 67 | 1011.0 |
| 20260505095417 | 11 | 192 | 0.0 | 0.0 | 0.00 | 0.00 | 0.00 | 67 | 1011.0 |
| 20260505094917 | 11 | 192 | 0.0 | 0.0 | 0.00 | 0.00 | 0.00 | 66 | 1011.0 |
| 20260505094416 | 11 | 192 | 0.0 | 0.0 | 0.00 | 0.00 | 0.00 | 66 | 1011.0 |
| 20260505093916 | 11 | 192 | 0.0 | 0.0 | 0.00 | 0.00 | 0.00 | 66 | 1011.0 |
| 20260505093415 | 11 | 192 | 0.0 | 0.0 | 0.00 | 0.00 | 0.00 | 66 | 1011.0 |
| 20260505092915 | 11 | 192 | 0.0 | 0.0 | 0.00 | 0.00 | 0.00 | 66 | 1011.0 |
| 20260505092414 | 11 | 192 | 0.0 | 0.0 | 0.00 | 0.00 | 0.00 | 66 | 1011.0 |
| 20260505091914 | 11 | 192 | 0.0 | 0.0 | 0.00 | 0.00 | 0.00 | 65 | 1011.0 |
| 20260505091414 | 11 | 192 | 0.0 | 0.0 | 0.00 | 0.00 | 0.00 | 65 | 1011.0 |
| 20260505090913 | 11 | 192 | 0.0 | 0.0 | 0.00 | 0.00 | 0.00 | 65 | 1011.0 |
| 20260505090413 | 11 | 192 | 0.0 | 0.0 | 0.00 | 0.00 | 0.00 | 64 | 1011.0 |
| 20260505085912 | 11 | 192 | 0.0 | 0.0 | 0.00 | 0.00 | 0.00 | 64 | 1011.0 |
| 20260505085412 | 11 | 192 | 0.0 | 0.0 | 0.00 | 0.00 | 0.00 | 63 | 1011.0 |
| 20260505084912 | 11 | 192 | 0.0 | 4.8 | 0.00 | 0.00 | 0.00 | 63 | 1011.0 |
| 20260505084411 | 11 | 192 | 0.0 | 4.8 | 0.00 | 0.00 | 0.00 | 63 | 1011.0 |
| 20260505083911 | 11 | 192 | 0.0 | 4.8 | 0.00 | 0.00 | 0.00 | 63 | 1011.0 |
| 20260505083410 | 11 | 192 | 0.0 | 0.0 | 0.00 | 0.00 | 0.00 | 63 | 1011.0 |
| 20260505082910 | 11 | 192 | 0.0 | 0.0 | 0.00 | 0.00 | 0.00 | 62 | 1011.0 |
| 20260505082409 | 11 | 192 | 0.0 | 6.4 | 0.00 | 0.00 | 0.00 | 62 | 1011.0 |
| 20260505081909 | 11 | 192 | 0.0 | 8.0 | 0.00 | 0.00 | 0.00 | 61 | 1011.0 |
| 20260505081408 | 12 | 163 | 0.0 | 0.0 | 0.00 | 0.00 | 0.00 | 62 | 1011.0 |
| 20260505080908 | 12 | 163 | 0.0 | 0.0 | 0.00 | 0.00 | 0.00 | 60 | 1011.0 |
| 20260505080408 | 12 | 163 | 0.0 | 0.0 | 0.00 | 0.00 | 0.00 | 60 | 1011.0 |
| 20260505075907 | 12 | 163 | 0.0 | 0.0 | 0.00 | 0.00 | 0.00 | 60 | 1011.0 |
| 20260505075407 | 12 | 163 | 0.0 | 6.4 | 0.00 | 0.00 | 0.00 | 60 | 1011.0 |
| 20260505074906 | 12 | 163 | 4.8 | 4.8 | 0.00 | 0.00 | 0.00 | 59 | 1011.0 |
| 20260505074406 | 12 | 163 | 0.0 | 0.0 | 0.00 | 0.00 | 0.00 | 59 | 1011.0 |
| 20260505073906 | 12 | 163 | 0.0 | 4.8 | 0.00 | 0.00 | 0.00 | 59 | 1011.0 |
| 20260505073405 | 12 | 163 | 0.0 | 0.0 | 0.00 | 0.00 | 0.00 | 58 | 1011.0 |
| 20260505072905 | 12 | 163 | 0.0 | 0.0 | 0.00 | 0.00 | 0.00 | 58 | 1011.0 |
| 20260505072404 | 12 | 163 | 0.0 | 0.0 | 0.00 | 0.00 | 0.00 | 58 | 1011.0 |
| 20260505071904 | 12 | 163 | 0.0 | 4.8 | 0.00 | 0.00 | 0.00 | 58 | 1011.0 |
| 20260505071403 | 12 | 163 | 0.0 | 0.0 | 0.00 | 0.00 | 0.00 | 57 | 1011.0 |
| 20260505070903 | 12 | 163 | 0.0 | 0.0 | 0.00 | 0.00 | 0.00 | 56 | 1011.0 |
| 20260505070403 | 12 | 163 | 0.0 | 0.0 | 0.00 | 0.00 | 0.00 | 56 | 1011.0 |
| 20260505065902 | 12 | 163 | 0.0 | 0.0 | 0.00 | 0.00 | 0.00 | 56 | 1011.0 |
| 20260505065402 | 13 | 163 | 0.0 | 0.0 | 0.00 | 0.00 | 0.00 | 56 | 1011.0 |
| 20260505064901 | 13 | 163 | 0.0 | 0.0 | 0.00 | 0.00 | 0.00 | 56 | 1011.0 |
| 20260505064401 | 13 | 163 | 0.0 | 0.0 | 0.00 | 0.00 | 0.00 | 56 | 1011.0 |
| 20260505063901 | 13 | 163 | 0.0 | 4.8 | 0.00 | 0.00 | 0.00 | 55 | 1011.0 |
| 20260505063802 | 13 | 163 | 4.8 | 4.8 | 0.00 | 0.00 | 0.00 | 56 | 1011.0 |
| 20260505063400 | 13 | 163 | 4.8 | 4.8 | 0.00 | 0.00 | 0.00 | 56 | 1011.0 |
| 20260505062937 | 13 | 163 | 0.0 | 0.0 | 0.00 | 0.00 | 0.00 | 54 | 1011.0 |
| 20260505062900 | 13 | 163 | 0.0 | 0.0 | 0.00 | 0.00 | 0.00 | 54 | 1011.0 |
| 20260505062359 | 13 | 163 | 0.0 | 0.0 | 0.00 | 0.00 | 0.00 | 54 | 1011.0 |
| 20260505061859 | 13 | 163 | 0.0 | 0.0 | 0.00 | 0.00 | 0.00 | 54 | 1011.0 |
| 20260505061358 | 13 | 163 | 0.0 | 0.0 | 0.00 | 0.00 | 0.00 | 54 | 1011.0 |
| 20260505060858 | 13 | 163 | 0.0 | 0.0 | 0.00 | 0.00 | 0.00 | 54 | 1011.0 |
| 20260505060358 | 13 | 163 | 0.0 | 0.0 | 0.00 | 0.00 | 0.00 | 54 | 1011.0 |
| 20260505055857 | 13 | 163 | 0.0 | 4.8 | 0.00 | 0.00 | 0.00 | 53 | 1011.0 |
| 20260505055357 | 13 | 163 | 0.0 | 6.4 | 0.00 | 0.00 | 0.00 | 54 | 1011.0 |
| 20260505054857 | 13 | 161 | 0.0 | 0.0 | 0.00 | 0.00 | 0.00 | 54 | 1011.0 |
| 20260505054356 | 13 | 162 | 0.0 | 4.8 | 0.00 | 0.00 | 0.00 | 53 | 1012.0 |
| 20260505053856 | 13 | 161 | 0.0 | 6.4 | 0.00 | 0.00 | 0.00 | 52 | 1012.0 |
| 20260505053355 | 13 | 161 | 0.0 | 0.0 | 0.00 | 0.00 | 0.00 | 51 | 1012.0 |
| 20260505052855 | 14 | 161 | 0.0 | 0.0 | 0.00 | 0.00 | 0.00 | 51 | 1012.0 |
| 20260505052355 | 14 | 161 | 0.0 | 0.0 | 0.00 | 0.00 | 0.00 | 51 | 1012.0 |
| 20260505051854 | 14 | 161 | 0.0 | 0.0 | 0.00 | 0.00 | 0.00 | 51 | 1012.0 |
| 20260505051354 | 14 | 161 | 0.0 | 0.0 | 0.00 | 0.00 | 0.00 | 50 | 1012.0 |
| 20260505050853 | 14 | 161 | 0.0 | 0.0 | 0.00 | 0.00 | 0.00 | 50 | 1012.0 |
| 20260505050601 | 14 | 161 | 0.0 | 0.0 | 0.00 | 0.00 | 0.00 | 50 | 1012.0 |
| 20260505050353 | 14 | 161 | 0.0 | 0.0 | 0.00 | 0.00 | 0.00 | 50 | 1012.0 |
| 20260505041349 | 15 | 161 | 0.0 | 0.0 | 0.00 | 0.00 | 0.00 | 48 | 1011.0 |
| 20260505040848 | 15 | 161 | 0.0 | 0.0 | 0.00 | 0.00 | 0.00 | 47 | 1011.0 |
| 20260505040348 | 15 | 161 | 0.0 | 4.8 | 0.00 | 0.00 | 0.00 | 47 | 1011.0 |
| 20260505035848 | 15 | 161 | 0.0 | 0.0 | 0.00 | 0.00 | 0.00 | 47 | 1012.0 |
| 20260505035819 | 15 | 161 | 0.0 | 0.0 | 0.00 | 0.00 | 0.00 | 47 | 1012.0 |
| 20260505035347 | 15 | 161 | 0.0 | 0.0 | 0.00 | 0.00 | 0.00 | 47 | 1012.0 |
| 20260505034847 | 15 | 161 | 0.0 | 0.0 | 0.00 | 0.00 | 0.00 | 47 | 1012.0 |
| 20260505034346 | 16 | 161 | 0.0 | 0.0 | 0.00 | 0.00 | 0.00 | 47 | 1012.0 |
| 20260505033846 | 16 | 161 | 0.0 | 0.0 | 0.00 | 0.00 | 0.00 | 46 | 1012.0 |
| 20260505033346 | 16 | 161 | 0.0 | 0.0 | 0.00 | 0.00 | 0.00 | 46 | 1012.0 |
| 20260505032845 | 16 | 161 | 0.0 | 0.0 | 0.00 | 0.00 | 0.00 | 46 | 1012.0 |
| 20260505032345 | 16 | 161 | 0.0 | 0.0 | 0.00 | 0.00 | 0.00 | 46 | 1012.0 |
| 20260505031844 | 16 | 161 | 0.0 | 0.0 | 0.00 | 0.00 | 0.00 | 46 | 1012.0 |
| 20260505031344 | 16 | 161 | 0.0 | 0.0 | 0.00 | 0.00 | 0.00 | 46 | 1012.0 |
| 20260505030843 | 16 | 161 | 0.0 | 0.0 | 0.00 | 0.00 | 0.00 | 46 | 1012.0 |
| 20260505030343 | 16 | 161 | 0.0 | 0.0 | 0.00 | 0.00 | 0.00 | 45 | 1012.0 |
| 20260505025843 | 16 | 161 | 0.0 | 0.0 | 0.00 | 0.00 | 0.00 | 45 | 1012.0 |
| 20260505025342 | 16 | 161 | 0.0 | 0.0 | 0.00 | 0.00 | 0.00 | 45 | 1012.0 |